Location: Unspecified
(48.8656°N, 0.0000°E)
Time: 22:30:54
(UTC+00:00)

Vanguard 1 - Pass Details

Date: 20 June 2019
Orbit: 653 x 3830 km, 34.3° (Epoch: 22 July)

Event Time Altitude Azimuth Distance (km) Brightness Sun altitude
Rises 02:42:51 0° 223° (SW) 7,447 - -9.2°
Exits shadow 02:48:54 - 215° (SW) 6,085 13.4 -8.6°
Reaches altitude 10° 02:49:21 10° 214° (SW) 5,982 13.4 -8.6°
Maximum altitude 03:02:23 28° 164° (SSE) 3,481 12.6 -7.2°
Drops below altitude 10° 03:10:45 10° 110° (ESE) 3,781 13.4 -6.3°
Sets 03:13:44 0° 99° (E) 4,397 13.9 -6.0°
